| time (UTC) | temp C | wind direction | speed KPH | gust KPH | rain 1hr cm | rain 24hr cm | rain mn cm | humidity % | barometer mb |
| 20260906065440 | 22 | 332 | 3.2 | 3.2 | 2.77 | 0.00 | 3.58 | 95 | 1014.1 |
| 20260906064944 | 22 | 269 | 1.6 | 3.2 | 2.79 | 0.00 | 3.56 | 95 | 1013.8 |
| 20260906064440 | 22 | 308 | 1.6 | 3.2 | 3.40 | 0.00 | 3.56 | 94 | 1013.7 |
| 20260906063940 | 22 | 342 | 3.2 | 4.8 | 3.45 | 0.00 | 3.56 | 94 | 1013.9 |
| 20260906063440 | 22 | 337 | 1.6 | 4.8 | 2.74 | 0.00 | 2.77 | 94 | 1013.9 |
| 20260906062940 | 22 | 104 | 0.0 | 3.2 | 2.77 | 0.00 | 2.77 | 94 | 1013.8 |
| 20260906062440 | 23 | 82 | 1.6 | 3.2 | 1.17 | 0.00 | 2.74 | 94 | 1013.7 |
| 20260906061945 | 23 | 324 | 3.2 | 4.8 | 1.17 | 0.00 | 1.17 | 92 | 1013.8 |
| 20260906061441 | 23 | 205 | 0.0 | 3.2 | 1.04 | 0.00 | 1.17 | 91 | 1013.7 |
| 20260906060940 | 23 | 348 | 3.2 | 6.4 | 1.04 | 0.00 | 1.17 | 90 | 1013.5 |
| 20260906060440 | 23 | 184 | 1.6 | 3.2 | 1.04 | 0.00 | 1.04 | 86 | 1012.8 |
| 20260906055940 | 23 | 169 | 4.8 | 6.4 | 0.18 | 0.00 | 1.04 | 85 | 1012.8 |
| 20260906055440 | 23 | 135 | 3.2 | 6.4 | 0.08 | 0.00 | 1.04 | 89 | 1012.8 |
| 20260906054940 | 24 | 128 | 4.8 | 8.0 | 0.08 | 0.00 | 0.36 | 88 | 1012.8 |
| 20260906054441 | 25 | 91 | 1.6 | 4.8 | 0.08 | 0.00 | 0.15 | 87 | 1013.0 |
| 20260906053942 | 26 | 144 | 3.2 | 6.4 | 0.08 | 0.00 | 0.10 | 83 | 1013.1 |
| 20260906053440 | 26 | 137 | 1.6 | 4.8 | 0.00 | 0.00 | 0.03 | 80 | 1013.6 |
| 20260906052941 | 27 | 138 | 3.2 | 6.4 | 0.00 | 0.00 | 0.00 | 73 | 1013.5 |
| 20260906052440 | 26 | 144 | 3.2 | 9.7 | 0.00 | 0.00 | 0.00 | 72 | 1013.4 |
| 20260906051940 | 26 | 158 | 3.2 | 6.4 | 0.00 | 0.00 | 0.00 | 75 | 1013.5 |
| 20260906051440 | 26 | 77 | 3.2 | 6.4 | 0.00 | 0.00 | 0.00 | 77 | 1013.5 |
| 20260906050940 | 25 | 163 | 3.2 | 9.7 | 0.00 | 0.00 | 0.00 | 82 | 1013.4 |
| 20260906050441 | 25 | 7 | 0.0 | 3.2 | 0.00 | 0.00 | 0.00 | 82 | 1013.2 |
| 20260906045941 | 25 | 360 | 0.0 | 0.0 | 0.00 | 0.00 | 0.05 | 82 | 1013.0 |
| 20260906045448 | 25 | 360 | 0.0 | 0.0 | 0.00 | 0.00 | 0.05 | 82 | 1012.9 |
| 20260906044941 | 25 | 360 | 0.0 | 0.0 | 0.00 | 0.00 | 0.05 | 82 | 1012.9 |
| 20260906044440 | 25 | 360 | 0.0 | 0.0 | 0.00 | 0.00 | 0.05 | 82 | 1013.0 |
| 20260906043940 | 25 | 286 | 0.0 | 1.6 | 0.00 | 0.00 | 0.05 | 82 | 1013.2 |
| 20260906043441 | 25 | 360 | 0.0 | 0.0 | 0.00 | 0.00 | 0.05 | 82 | 1013.3 |
| 20260906042941 | 25 | 162 | 0.0 | 1.6 | 0.00 | 0.00 | 0.05 | 82 | 1013.3 |
| 20260906042441 | 25 | 360 | 0.0 | 0.0 | 0.00 | 0.00 | 0.05 | 82 | 1013.3 |
| 20260906041940 | 25 | 360 | 0.0 | 0.0 | 0.00 | 0.00 | 0.05 | 82 | 1013.4 |
| 20260906041440 | 25 | 360 | 0.0 | 0.0 | 0.00 | 0.00 | 0.05 | 82 | 1013.4 |
| 20260906040941 | 26 | 360 | 0.0 | 0.0 | 0.00 | 0.00 | 0.05 | 81 | 1013.4 |
| 20260906040440 | 26 | 190 | 0.0 | 0.0 | 0.00 | 0.00 | 0.05 | 81 | 1013.4 |
| 20260906035943 | 26 | 360 | 0.0 | 0.0 | 0.00 | 0.00 | 0.05 | 80 | 1013.5 |
| 20260906035440 | 26 | 360 | 0.0 | 0.0 | 0.00 | 0.00 | 0.05 | 80 | 1013.5 |
| 20260906034941 | 26 | 360 | 0.0 | 0.0 | 0.00 | 0.00 | 0.05 | 79 | 1013.5 |
| 20260906034441 | 26 | 262 | 0.0 | 1.6 | 0.00 | 0.00 | 0.05 | 79 | 1013.4 |
| 20260906033940 | 26 | 360 | 0.0 | 0.0 | 0.00 | 0.00 | 0.05 | 79 | 1013.4 |
| 20260906033441 | 26 | 360 | 0.0 | 0.0 | 0.00 | 0.00 | 0.05 | 79 | 1013.4 |
| 20260906032940 | 26 | 360 | 0.0 | 0.0 | 0.00 | 0.00 | 0.05 | 78 | 1013.4 |
| 20260906032440 | 26 | 360 | 0.0 | 0.0 | 0.00 | 0.00 | 0.05 | 77 | 1013.4 |
| 20260906031940 | 26 | 360 | 0.0 | 0.0 | 0.00 | 0.00 | 0.05 | 78 | 1013.4 |
| 20260906031441 | 26 | 360 | 0.0 | 0.0 | 0.00 | 0.00 | 0.05 | 77 | 1013.3 |
| 20260906030941 | 26 | 360 | 0.0 | 0.0 | 0.00 | 0.00 | 0.05 | 77 | 1013.3 |
| 20260906030440 | 27 | 360 | 0.0 | 0.0 | 0.00 | 0.00 | 0.05 | 78 | 1013.2 |
| 20260906025942 | 27 | 360 | 0.0 | 0.0 | 0.00 | 0.00 | 0.05 | 77 | 1013.3 |
| 20260906025443 | 27 | 360 | 0.0 | 0.0 | 0.00 | 0.00 | 0.05 | 74 | 1013.2 |
| 20260906024940 | 27 | 360 | 0.0 | 0.0 | 0.00 | 0.00 | 0.05 | 75 | 1013.2 |
| 20260906024441 | 27 | 292 | 0.0 | 1.6 | 0.00 | 0.00 | 0.05 | 76 | 1013.2 |
| 20260906023942 | 26 | 295 | 0.0 | 1.6 | 0.00 | 0.00 | 0.05 | 74 | 1013.0 |
| 20260906023441 | 26 | 360 | 0.0 | 0.0 | 0.00 | 0.00 | 0.05 | 79 | 1013.0 |
| 20260906022941 | 26 | 360 | 0.0 | 0.0 | 0.00 | 0.00 | 0.05 | 78 | 1012.9 |
| 20260906022442 | 26 | 254 | 0.0 | 1.6 | 0.00 | 0.00 | 0.05 | 78 | 1012.7 |
| 20260906021941 | 26 | 275 | 0.0 | 3.2 | 0.00 | 0.00 | 0.05 | 80 | 1012.7 |
| 20260906021441 | 26 | 199 | 0.0 | 1.6 | 0.00 | 0.00 | 0.05 | 79 | 1012.7 |
| 20260906020941 | 26 | 360 | 0.0 | 0.0 | 0.00 | 0.00 | 0.05 | 79 | 1012.7 |
| 20260906020443 | 26 | 207 | 1.6 | 3.2 | 0.00 | 0.00 | 0.05 | 79 | 1012.6 |
| 20260906015940 | 26 | 331 | 0.0 | 1.6 | 0.00 | 0.00 | 0.05 | 78 | 1012.6 |
| 20260906015440 | 26 | 360 | 0.0 | 0.0 | 0.00 | 0.00 | 0.05 | 79 | 1012.6 |
| 20260906014941 | 26 | 108 | 0.0 | 1.6 | 0.00 | 0.00 | 0.05 | 79 | 1012.4 |
| 20260906014440 | 26 | 360 | 0.0 | 0.0 | 0.00 | 0.00 | 0.05 | 79 | 1012.4 |
| 20260906013941 | 26 | 340 | 0.0 | 3.2 | 0.00 | 0.00 | 0.05 | 77 | 1012.3 |
| 20260906013441 | 27 | 360 | 0.0 | 0.0 | 0.00 | 0.00 | 0.05 | 78 | 1012.2 |
| 20260906012940 | 27 | 360 | 0.0 | 0.0 | 0.00 | 0.00 | 0.05 | 77 | 1012.1 |
| 20260906012440 | 27 | 360 | 0.0 | 0.0 | 0.00 | 0.00 | 0.05 | 77 | 1012.1 |
| 20260906011941 | 27 | 360 | 0.0 | 0.0 | 0.00 | 0.00 | 0.05 | 77 | 1012.0 |
| 20260906011440 | 27 | 360 | 0.0 | 0.0 | 0.00 | 0.00 | 0.05 | 78 | 1012.1 |
| 20260906010941 | 27 | 360 | 0.0 | 0.0 | 0.00 | 0.00 | 0.05 | 76 | 1012.1 |
| 20260906010441 | 27 | 360 | 0.0 | 0.0 | 0.00 | 0.00 | 0.05 | 77 | 1012.1 |
| 20260906005940 | 27 | 360 | 0.0 | 0.0 | 0.00 | 0.00 | 0.05 | 77 | 1012.0 |
| 20260906005441 | 27 | 271 | 0.0 | 1.6 | 0.00 | 0.00 | 0.05 | 76 | 1012.0 |
| 20260906004941 | 27 | 278 | 0.0 | 0.0 | 0.00 | 0.00 | 0.05 | 76 | 1012.0 |
| 20260906004440 | 27 | 360 | 0.0 | 0.0 | 0.00 | 0.00 | 0.05 | 76 | 1011.9 |
| 20260906003941 | 27 | 360 | 0.0 | 0.0 | 0.00 | 0.00 | 0.05 | 74 | 1011.9 |
| 20260906003441 | 27 | 271 | 0.0 | 0.0 | 0.05 | 0.00 | 0.05 | 74 | 1011.9 |
| 20260906002941 | 27 | 297 | 0.0 | 1.6 | 0.05 | 0.00 | 0.05 | 76 | 1011.9 |
| 20260906002443 | 27 | 242 | 0.0 | 3.2 | 0.05 | 0.00 | 0.05 | 77 | 1012.0 |
| 20260906001940 | 27 | 236 | 0.0 | 3.2 | 0.05 | 0.00 | 0.05 | 77 | 1012.0 |
| 20260906001440 | 27 | 360 | 0.0 | 0.0 | 0.05 | 0.00 | 0.05 | 77 | 1012.2 |
| 20260906000941 | 27 | 226 | 0.0 | 1.6 | 0.05 | 0.00 | 0.05 | 79 | 1012.3 |
| 20260906000441 | 27 | 237 | 1.6 | 3.2 | 0.05 | 0.00 | 0.05 | 82 | 1012.7 |
| 20260905235940 | 27 | 216 | 1.6 | 3.2 | 0.05 | 0.00 | 0.05 | 78 | 1012.8 |
| 20260905235441 | 27 | 223 | 0.0 | 3.2 | 0.05 | 0.00 | 0.05 | 78 | 1013.0 |
| 20260905234941 | 27 | 38 | 1.6 | 4.8 | 0.05 | 0.00 | 0.05 | 80 | 1012.8 |
| 20260905234441 | 27 | 187 | 0.0 | 3.2 | 0.05 | 0.00 | 0.05 | 78 | 1012.7 |
| 20260905233941 | 28 | 287 | 1.6 | 3.2 | 0.05 | 0.00 | 0.05 | 80 | 1012.6 |
| 20260905233440 | 30 | 314 | 3.2 | 3.2 | 0.05 | 0.00 | 0.05 | 74 | 1012.1 |
| 20260905232940 | 32 | 272 | 1.6 | 3.2 | 0.05 | 0.00 | 0.05 | 59 | 1011.9 |
| 20260905232441 | 32 | 14 | 0.0 | 3.2 | 0.00 | 0.00 | 0.00 | 55 | 1011.8 |
| 20260905231941 | 32 | 360 | 0.0 | 0.0 | 0.00 | 0.00 | 0.00 | 55 | 1011.6 |
| 20260905231451 | 33 | 360 | 0.0 | 0.0 | 0.00 | 0.00 | 0.00 | 55 | 1011.6 |
| 20260905230940 | 33 | 360 | 0.0 | 0.0 | 0.00 | 0.00 | 0.00 | 54 | 1011.6 |
| 20260905230440 | 33 | 131 | 0.0 | 1.6 | 0.00 | 0.00 | 0.00 | 53 | 1011.6 |
| 20260905225940 | 33 | 360 | 0.0 | 0.0 | 0.00 | 0.00 | 0.00 | 52 | 1011.5 |
| 20260905225442 | 34 | 148 | 1.6 | 4.8 | 0.00 | 0.00 | 0.00 | 54 | 1011.5 |
| 20260905224941 | 34 | 360 | 0.0 | 0.0 | 0.00 | 0.00 | 0.00 | 52 | 1011.3 |
| 20260905224440 | 34 | 360 | 0.0 | 0.0 | 0.00 | 0.00 | 0.00 | 52 | 1011.3 |
| 20260905223940 | 34 | 360 | 0.0 | 0.0 | 0.00 | 0.00 | 0.00 | 50 | 1011.4 |
| 20260905223440 | 34 | 198 | 1.6 | 3.2 | 0.00 | 0.00 | 0.00 | 49 | 1011.4 |
| 20260905222941 | 34 | 253 | 0.0 | 1.6 | 0.00 | 0.00 | 0.00 | 51 | 1011.4 |
| 20260905222443 | 34 | 270 | 0.0 | 1.6 | 0.00 | 0.00 | 0.00 | 51 | 1011.4 |
| 20260905221940 | 35 | 193 | 1.6 | 3.2 | 0.00 | 0.00 | 0.00 | 49 | 1011.4 |
| 20260905221440 | 35 | 158 | 1.6 | 4.8 | 0.00 | 0.00 | 0.00 | 48 | 1011.4 |
| 20260905220941 | 35 | 195 | 1.6 | 3.2 | 0.00 | 0.00 | 0.00 | 48 | 1011.5 |
| 20260905220441 | 35 | 157 | 1.6 | 4.8 | 0.00 | 0.00 | 0.00 | 48 | 1011.5 |
| 20260905215940 | 35 | 212 | 1.6 | 3.2 | 0.00 | 0.00 | 0.00 | 48 | 1011.5 |
| 20260905215442 | 35 | 360 | 0.0 | 0.0 | 0.00 | 0.00 | 0.00 | 49 | 1011.6 |
| 20260905214941 | 35 | 360 | 0.0 | 0.0 | 0.00 | 0.00 | 0.00 | 48 | 1011.6 |
| 20260905214441 | 35 | 246 | 0.0 | 0.0 | 0.00 | 0.00 | 0.00 | 47 | 1011.6 |
| 20260905213940 | 35 | 155 | 3.2 | 3.2 | 0.00 | 0.00 | 0.00 | 47 | 1011.6 |
| 20260905213440 | 35 | 128 | 0.0 | 3.2 | 0.00 | 0.00 | 0.00 | 47 | 1011.6 |
| 20260905212940 | 35 | 155 | 1.6 | 4.8 | 0.00 | 0.00 | 0.00 | 45 | 1011.6 |
| 20260905212440 | 35 | 157 | 1.6 | 4.8 | 0.00 | 0.00 | 0.00 | 45 | 1011.6 |
| 20260905211940 | 35 | 178 | 1.6 | 3.2 | 0.00 | 0.00 | 0.00 | 46 | 1011.6 |
| 20260905211440 | 35 | 148 | 4.8 | 6.4 | 0.00 | 0.00 | 0.00 | 45 | 1011.6 |
| 20260905210940 | 36 | 147 | 3.2 | 4.8 | 0.00 | 0.00 | 0.00 | 45 | 1011.6 |
| 20260905210441 | 35 | 196 | 0.0 | 4.8 | 0.00 | 0.00 | 0.00 | 46 | 1011.6 |
| 20260905205941 | 36 | 360 | 0.0 | 0.0 | 0.00 | 0.00 | 0.00 | 48 | 1011.6 |
| 20260905205447 | 36 | 194 | 0.0 | 0.0 | 0.00 | 0.00 | 0.00 | 47 | 1011.6 |
| 20260905204943 | 36 | 152 | 3.2 | 4.8 | 0.00 | 0.00 | 0.00 | 45 | 1011.7 |
| 20260905204441 | 36 | 155 | 1.6 | 4.8 | 0.00 | 0.00 | 0.00 | 45 | 1011.9 |
| 20260905203940 | 36 | 150 | 1.6 | 4.8 | 0.00 | 0.00 | 0.00 | 46 | 1011.9 |
| 20260905203440 | 36 | 170 | 0.0 | 3.2 | 0.00 | 0.00 | 0.00 | 45 | 1011.9 |
| 20260905202942 | 36 | 162 | 1.6 | 3.2 | 0.00 | 0.00 | 0.00 | 44 | 1012.1 |
| 20260905202440 | 36 | 157 | 0.0 | 3.2 | 0.00 | 0.00 | 0.00 | 45 | 1012.1 |
| 20260905201940 | 36 | 191 | 0.0 | 3.2 | 0.00 | 0.00 | 0.00 | 45 | 1012.1 |
| 20260905201441 | 36 | 173 | 3.2 | 4.8 | 0.00 | 0.00 | 0.00 | 46 | 1012.2 |
| 20260905200941 | 36 | 143 | 3.2 | 6.4 | 0.00 | 0.00 | 0.00 | 46 | 1012.2 |
| 20260905200441 | 36 | 151 | 3.2 | 6.4 | 0.00 | 0.00 | 0.00 | 44 | 1012.3 |
| 20260905195941 | 36 | 152 | 1.6 | 3.2 | 0.00 | 0.00 | 0.00 | 46 | 1012.6 |
| 20260905195441 | 36 | 193 | 3.2 | 4.8 | 0.00 | 0.00 | 0.00 | 45 | 1012.6 |
| 20260905194941 | 37 | 161 | 3.2 | 6.4 | 0.00 | 0.00 | 0.00 | 44 | 1012.7 |
| 20260905194441 | 37 | 192 | 3.2 | 3.2 | 0.00 | 0.00 | 0.00 | 44 | 1012.8 |
| 20260905193940 | 37 | 168 | 0.0 | 4.8 | 0.00 | 0.00 | 0.00 | 45 | 1012.8 |
| 20260905193441 | 37 | 152 | 4.8 | 6.4 | 0.00 | 0.00 | 0.00 | 44 | 1012.8 |
| 20260905192941 | 37 | 183 | 1.6 | 4.8 | 0.00 | 0.00 | 0.00 | 44 | 1012.8 |
| 20260905192442 | 37 | 96 | 0.0 | 6.4 | 0.00 | 0.00 | 0.00 | 44 | 1012.9 |
| 20260905191941 | 37 | 205 | 3.2 | 3.2 | 0.00 | 0.00 | 0.00 | 43 | 1013.0 |
| 20260905191441 | 37 | 173 | 1.6 | 3.2 | 0.00 | 0.00 | 0.00 | 43 | 1013.1 |
| 20260905190941 | 37 | 173 | 1.6 | 3.2 | 0.00 | 0.00 | 0.00 | 44 | 1013.2 |
| 20260905190441 | 37 | 134 | 3.2 | 6.4 | 0.00 | 0.00 | 0.00 | 44 | 1013.3 |
| 20260905185940 | 37 | 147 | 4.8 | 8.0 | 0.00 | 0.00 | 0.00 | 43 | 1013.4 |
| 20260905185440 | 36 | 164 | 1.6 | 9.7 | 0.00 | 0.00 | 0.00 | 46 | 1013.5 |
| 20260905184942 | 37 | 185 | 1.6 | 3.2 | 0.00 | 0.00 | 0.00 | 47 | 1013.5 |
| 20260905184440 | 37 | 119 | 0.0 | 1.6 | 0.00 | 0.00 | 0.00 | 43 | 1013.5 |
| 20260905183943 | 37 | 187 | 3.2 | 4.8 | 0.00 | 0.00 | 0.00 | 45 | 1013.7 |
| 20260905183440 | 37 | 174 | 3.2 | 4.8 | 0.00 | 0.00 | 0.00 | 45 | 1013.7 |
| 20260905182941 | 37 | 181 | 1.6 | 4.8 | 0.00 | 0.00 | 0.00 | 48 | 1013.8 |
| 20260905182441 | 37 | 171 | 3.2 | 8.0 | 0.00 | 0.00 | 0.00 | 46 | 1013.8 |
| 20260905181940 | 37 | 153 | 3.2 | 6.4 | 0.00 | 0.00 | 0.00 | 47 | 1013.8 |
| 20260905181440 | 37 | 201 | 1.6 | 3.2 | 0.00 | 0.00 | 0.00 | 47 | 1013.9 |
| 20260905180941 | 37 | 155 | 3.2 | 8.0 | 0.00 | 0.00 | 0.00 | 46 | 1014.0 |
| 20260905180441 | 37 | 202 | 1.6 | 3.2 | 0.00 | 0.00 | 0.00 | 46 | 1014.1 |
| 20260905175958 | 36 | 168 | 4.8 | 9.7 | 0.00 | 0.00 | 0.00 | 46 | 1014.1 |
| 20260905175441 | 36 | 218 | 1.6 | 3.2 | 0.00 | 0.00 | 0.00 | 49 | 1014.2 |
| 20260905174941 | 37 | 226 | 3.2 | 3.2 | 0.00 | 0.00 | 0.00 | 48 | 1014.1 |
| 20260905174441 | 37 | 138 | 1.6 | 3.2 | 0.00 | 0.00 | 0.00 | 49 | 1014.2 |
| 20260905173940 | 37 | 179 | 4.8 | 8.0 | 0.00 | 0.00 | 0.00 | 47 | 1014.2 |
| 20260905173440 | 36 | 165 | 3.2 | 6.4 | 0.00 | 0.00 | 0.00 | 49 | 1014.2 |
| 20260905172941 | 37 | 172 | 3.2 | 6.4 | 0.00 | 0.00 | 0.00 | 48 | 1014.3 |
| 20260905172441 | 36 | 151 | 3.2 | 6.4 | 0.00 | 0.00 | 0.00 | 48 | 1014.4 |
| 20260905171941 | 36 | 189 | 3.2 | 4.8 | 0.00 | 0.00 | 0.00 | 51 | 1014.5 |
| 20260905171441 | 36 | 223 | 1.6 | 3.2 | 0.00 | 0.00 | 0.00 | 51 | 1014.5 |
| 20260905170940 | 36 | 131 | 3.2 | 9.7 | 0.00 | 0.00 | 0.00 | 49 | 1014.6 |
| 20260905170441 | 36 | 150 | 1.6 | 6.4 | 0.00 | 0.00 | 0.00 | 49 | 1014.6 |
| 20260905165942 | 35 | 173 | 1.6 | 6.4 | 0.00 | 0.00 | 0.00 | 50 | 1014.6 |
| 20260905165440 | 35 | 193 | 3.2 | 4.8 | 0.00 | 0.00 | 0.00 | 53 | 1014.6 |
| 20260905164941 | 35 | 142 | 3.2 | 4.8 | 0.00 | 0.00 | 0.00 | 54 | 1014.7 |
| 20260905164441 | 35 | 160 | 3.2 | 6.4 | 0.00 | 0.00 | 0.00 | 53 | 1014.8 |
| 20260905163941 | 34 | 147 | 4.8 | 8.0 | 0.00 | 0.00 | 0.00 | 54 | 1014.9 |
| 20260905163441 | 34 | 125 | 3.2 | 4.8 | 0.00 | 0.00 | 0.00 | 54 | 1015.0 |
| 20260905162940 | 34 | 143 | 3.2 | 6.4 | 0.00 | 0.00 | 0.00 | 55 | 1015.1 |
| 20260905162441 | 34 | 143 | 4.8 | 9.7 | 0.00 | 0.00 | 0.00 | 55 | 1015.2 |
| 20260905161940 | 33 | 141 | 3.2 | 6.4 | 0.00 | 0.00 | 0.00 | 57 | 1015.2 |
| 20260905161441 | 34 | 139 | 3.2 | 6.4 | 0.00 | 0.00 | 0.00 | 57 | 1015.2 |
| 20260905160941 | 34 | 150 | 6.4 | 9.7 | 0.00 | 0.00 | 0.00 | 56 | 1015.3 |
| 20260905160440 | 34 | 142 | 3.2 | 6.4 | 0.00 | 0.00 | 0.00 | 57 | 1015.3 |
| 20260905155941 | 35 | 140 | 3.2 | 6.4 | 0.00 | 0.00 | 0.00 | 54 | 1015.4 |
| 20260905155440 | 34 | 148 | 0.0 | 4.8 | 0.00 | 0.00 | 0.00 | 55 | 1015.4 |
| 20260905154942 | 33 | 171 | 1.6 | 6.4 | 0.00 | 0.00 | 0.00 | 59 | 1015.4 |
| 20260905154441 | 33 | 176 | 3.2 | 6.4 | 0.00 | 0.00 | 0.00 | 57 | 1015.4 |
| 20260905153941 | 33 | 145 | 0.0 | 0.0 | 0.00 | 0.00 | 0.00 | 58 | 1015.5 |
| 20260905153441 | 33 | 190 | 1.6 | 3.2 | 0.00 | 0.00 | 0.00 | 60 | 1015.5 |
| 20260905152941 | 34 | 217 | 3.2 | 3.2 | 0.00 | 0.00 | 0.00 | 60 | 1015.5 |
| 20260905152441 | 33 | 157 | 1.6 | 3.2 | 0.00 | 0.00 | 0.00 | 58 | 1015.5 |
| 20260905151943 | 33 | 194 | 0.0 | 1.6 | 0.00 | 0.00 | 0.00 | 61 | 1015.5 |
| 20260905151441 | 33 | 177 | 0.0 | 3.2 | 0.00 | 0.00 | 0.00 | 62 | 1015.5 |
| 20260905150940 | 32 | 360 | 0.0 | 0.0 | 0.00 | 0.00 | 0.00 | 63 | 1015.5 |
| 20260905150441 | 32 | 196 | 1.6 | 3.2 | 0.00 | 0.00 | 0.00 | 66 | 1015.5 |
| 20260905145941 | 31 | 155 | 1.6 | 4.8 | 0.00 | 0.00 | 0.00 | 67 | 1015.5 |
| 20260905145440 | 31 | 215 | 0.0 | 3.2 | 0.00 | 0.00 | 0.00 | 69 | 1015.4 |
| 20260905144941 | 31 | 139 | 0.0 | 3.2 | 0.00 | 0.00 | 0.00 | 70 | 1015.4 |
| 20260905144440 | 31 | 360 | 0.0 | 0.0 | 0.00 | 0.00 | 0.00 | 71 | 1015.5 |
| 20260905143943 | 31 | 138 | 0.0 | 3.2 | 0.00 | 0.00 | 0.00 | 71 | 1015.6 |
| 20260905143440 | 30 | 154 | 0.0 | 1.6 | 0.00 | 0.00 | 0.00 | 71 | 1015.6 |
| 20260905142941 | 30 | 156 | 0.0 | 3.2 | 0.00 | 0.00 | 0.00 | 72 | 1015.7 |
| 20260905142440 | 29 | 360 | 0.0 | 0.0 | 0.00 | 0.00 | 0.00 | 74 | 1015.7 |
| 20260905141940 | 29 | 360 | 0.0 | 0.0 | 0.00 | 0.00 | 0.00 | 75 | 1015.7 |
| 20260905141441 | 28 | 194 | 0.0 | 3.2 | 0.00 | 0.00 | 0.00 | 76 | 1015.8 |
| 20260905140940 | 28 | 360 | 0.0 | 0.0 | 0.00 | 0.00 | 0.00 | 77 | 1015.9 |
| 20260905140440 | 28 | 185 | 0.0 | 3.2 | 0.00 | 0.00 | 0.00 | 78 | 1015.8 |
| 20260905135941 | 28 | 164 | 0.0 | 0.0 | 0.00 | 0.00 | 0.00 | 79 | 1015.8 |
| 20260905135440 | 27 | 209 | 0.0 | 3.2 | 0.00 | 0.00 | 0.00 | 80 | 1015.9 |
| 20260905134941 | 27 | 186 | 0.0 | 1.6 | 0.00 | 0.00 | 0.00 | 81 | 1015.9 |
| 20260905134440 | 27 | 201 | 1.6 | 3.2 | 0.00 | 0.00 | 0.00 | 81 | 1015.9 |
| 20260905133941 | 27 | 360 | 0.0 | 0.0 | 0.00 | 0.00 | 0.00 | 81 | 1015.9 |
| 20260905133440 | 27 | 163 | 0.0 | 1.6 | 0.00 | 0.00 | 0.00 | 81 | 1016.0 |
| 20260905132940 | 27 | 179 | 0.0 | 1.6 | 0.00 | 0.00 | 0.00 | 80 | 1016.0 |
| 20260905132440 | 27 | 360 | 0.0 | 0.0 | 0.00 | 0.00 | 0.00 | 80 | 1016.0 |
| 20260905131940 | 27 | 360 | 0.0 | 0.0 | 0.00 | 0.00 | 0.00 | 82 | 1016.1 |
| 20260905131441 | 27 | 221 | 0.0 | 1.6 | 0.00 | 0.00 | 0.00 | 83 | 1016.1 |
| 20260905130941 | 26 | 360 | 0.0 | 0.0 | 0.00 | 0.00 | 0.00 | 84 | 1016.0 |
| 20260905130440 | 26 | 360 | 0.0 | 0.0 | 0.00 | 0.00 | 0.00 | 85 | 1016.1 |
| 20260905125941 | 25 | 360 | 0.0 | 0.0 | 0.00 | 0.00 | 0.00 | 87 | 1016.1 |
| 20260905125440 | 25 | 360 | 0.0 | 0.0 | 0.00 | 0.00 | 0.00 | 89 | 1016.1 |
| 20260905124941 | 24 | 209 | 0.0 | 1.6 | 0.00 | 0.00 | 0.00 | 90 | 1016.1 |
| 20260905124440 | 24 | 360 | 0.0 | 0.0 | 0.00 | 0.00 | 0.00 | 92 | 1016.1 |
| 20260905123940 | 23 | 360 | 0.0 | 0.0 | 0.00 | 0.00 | 0.00 | 92 | 1016.0 |
| 20260905123440 | 23 | 360 | 0.0 | 0.0 | 0.00 | 0.00 | 0.00 | 93 | 1016.1 |
| 20260905122940 | 23 | 360 | 0.0 | 0.0 | 0.00 | 0.00 | 0.00 | 93 | 1016.0 |
| 20260905122441 | 23 | 360 | 0.0 | 0.0 | 0.00 | 0.00 | 0.00 | 93 | 1016.0 |
| 20260905121940 | 23 | 360 | 0.0 | 0.0 | 0.00 | 0.00 | 0.00 | 93 | 1016.0 |
| 20260905121441 | 23 | 111 | 0.0 | 0.0 | 0.00 | 0.00 | 0.00 | 93 | 1015.8 |
| 20260905120941 | 23 | 360 | 0.0 | 0.0 | 0.00 | 0.00 | 0.00 | 94 | 1015.8 |
| 20260905120441 | 23 | 360 | 0.0 | 0.0 | 0.00 | 0.00 | 0.00 | 94 | 1015.7 |
| 20260905115940 | 23 | 360 | 0.0 | 0.0 | 0.00 | 0.00 | 0.00 | 94 | 1015.7 |
| 20260905115442 | 23 | 360 | 0.0 | 0.0 | 0.00 | 0.00 | 0.00 | 94 | 1015.6 |
| 20260905114942 | 23 | 360 | 0.0 | 0.0 | 0.00 | 0.00 | 0.00 | 94 | 1015.6 |
| 20260905114441 | 23 | 360 | 0.0 | 0.0 | 0.00 | 0.00 | 0.00 | 93 | 1015.4 |
| 20260905113941 | 23 | 360 | 0.0 | 0.0 | 0.00 | 0.00 | 0.00 | 93 | 1015.4 |
| 20260905113440 | 23 | 360 | 0.0 | 0.0 | 0.00 | 0.00 | 0.00 | 93 | 1015.3 |
| 20260905112940 | 23 | 360 | 0.0 | 0.0 | 0.00 | 0.00 | 0.00 | 94 | 1015.2 |
| 20260905112440 | 23 | 360 | 0.0 | 0.0 | 0.00 | 0.00 | 0.00 | 94 | 1015.2 |
| 20260905111941 | 23 | 360 | 0.0 | 0.0 | 0.00 | 0.00 | 0.00 | 94 | 1015.1 |
| 20260905111440 | 23 | 360 | 0.0 | 0.0 | 0.00 | 0.00 | 0.00 | 94 | 1015.0 |
| 20260905110941 | 23 | 360 | 0.0 | 0.0 | 0.00 | 0.00 | 0.00 | 93 | 1015.0 |
| 20260905110441 | 23 | 360 | 0.0 | 0.0 | 0.00 | 0.00 | 0.00 | 93 | 1014.9 |
| 20260905105940 | 23 | 360 | 0.0 | 0.0 | 0.00 | 0.00 | 0.00 | 93 | 1014.8 |
| 20260905105441 | 23 | 360 | 0.0 | 0.0 | 0.00 | 0.00 | 0.00 | 93 | 1014.8 |
| 20260905104941 | 23 | 360 | 0.0 | 0.0 | 0.00 | 0.00 | 0.00 | 92 | 1014.9 |
| 20260905104441 | 23 | 360 | 0.0 | 0.0 | 0.00 | 0.00 | 0.00 | 92 | 1014.8 |
| 20260905103941 | 23 | 360 | 0.0 | 0.0 | 0.00 | 0.00 | 0.00 | 93 | 1014.7 |
| 20260905103440 | 23 | 360 | 0.0 | 0.0 | 0.00 | 0.00 | 0.00 | 93 | 1014.7 |
| 20260905102940 | 23 | 360 | 0.0 | 0.0 | 0.00 | 0.00 | 0.00 | 93 | 1014.6 |
| 20260905102440 | 23 | 360 | 0.0 | 0.0 | 0.00 | 0.00 | 0.00 | 92 | 1014.5 |
| 20260905101940 | 23 | 360 | 0.0 | 0.0 | 0.00 | 0.00 | 0.00 | 93 | 1014.5 |
| 20260905101441 | 23 | 360 | 0.0 | 0.0 | 0.00 | 0.00 | 0.00 | 93 | 1014.5 |
| 20260905100941 | 23 | 360 | 0.0 | 0.0 | 0.00 | 0.00 | 0.00 | 93 | 1014.5 |
| 20260905100443 | 23 | 360 | 0.0 | 0.0 | 0.00 | 0.00 | 0.00 | 93 | 1014.5 |
| 20260905095941 | 23 | 360 | 0.0 | 0.0 | 0.00 | 0.00 | 0.00 | 92 | 1014.5 |
| 20260905095441 | 23 | 360 | 0.0 | 0.0 | 0.00 | 0.00 | 0.00 | 92 | 1014.5 |
| 20260905094941 | 23 | 360 | 0.0 | 0.0 | 0.00 | 0.00 | 0.00 | 92 | 1014.5 |
| 20260905094440 | 23 | 360 | 0.0 | 0.0 | 0.00 | 0.00 | 0.00 | 92 | 1014.5 |
| 20260905093941 | 23 | 297 | 0.0 | 0.0 | 0.00 | 0.00 | 0.00 | 92 | 1014.4 |
| 20260905093441 | 23 | 360 | 0.0 | 0.0 | 0.00 | 0.00 | 0.00 | 92 | 1014.5 |
| 20260905092940 | 23 | 360 | 0.0 | 0.0 | 0.00 | 0.00 | 0.00 | 91 | 1014.5 |
| 20260905092440 | 23 | 360 | 0.0 | 0.0 | 0.00 | 0.00 | 0.00 | 91 | 1014.4 |
| 20260905091940 | 23 | 360 | 0.0 | 0.0 | 0.00 | 0.00 | 0.00 | 91 | 1014.4 |
| 20260905091441 | 23 | 360 | 0.0 | 0.0 | 0.00 | 0.00 | 0.00 | 91 | 1014.4 |
| 20260905090941 | 23 | 360 | 0.0 | 0.0 | 0.00 | 0.00 | 0.00 | 91 | 1014.4 |
| 20260905090444 | 23 | 360 | 0.0 | 0.0 | 0.00 | 0.00 | 0.00 | 91 | 1014.3 |
| 20260905085940 | 23 | 360 | 0.0 | 0.0 | 0.00 | 0.00 | 0.00 | 90 | 1014.3 |
| 20260905085440 | 23 | 360 | 0.0 | 0.0 | 0.00 | 0.00 | 0.00 | 90 | 1014.4 |
| 20260905084940 | 23 | 360 | 0.0 | 0.0 | 0.00 | 0.00 | 0.00 | 90 | 1014.4 |
| 20260905084440 | 23 | 360 | 0.0 | 0.0 | 0.00 | 0.00 | 0.00 | 90 | 1014.4 |
| 20260905083943 | 23 | 360 | 0.0 | 0.0 | 0.00 | 0.00 | 0.00 | 90 | 1014.4 |
| 20260905083440 | 23 | 360 | 0.0 | 0.0 | 0.00 | 0.00 | 0.00 | 90 | 1014.3 |
| 20260905082941 | 23 | 360 | 0.0 | 0.0 | 0.00 | 0.00 | 0.00 | 90 | 1014.3 |
| 20260905082441 | 23 | 360 | 0.0 | 0.0 | 0.00 | 0.00 | 0.00 | 90 | 1014.3 |
| 20260905081940 | 23 | 264 | 0.0 | 0.0 | 0.00 | 0.00 | 0.00 | 90 | 1014.3 |
| 20260905081441 | 23 | 360 | 0.0 | 0.0 | 0.00 | 0.00 | 0.00 | 89 | 1014.3 |
| 20260905080941 | 23 | 360 | 0.0 | 0.0 | 0.00 | 0.00 | 0.00 | 89 | 1014.3 |
| 20260905080440 | 24 | 360 | 0.0 | 0.0 | 0.00 | 0.00 | 0.00 | 89 | 1014.2 |
| 20260905075941 | 24 | 360 | 0.0 | 0.0 | 0.00 | 0.00 | 0.00 | 89 | 1014.1 |
| 20260905075440 | 24 | 360 | 0.0 | 0.0 | 0.00 | 0.00 | 0.00 | 89 | 1014.1 |
| 20260905074941 | 24 | 360 | 0.0 | 0.0 | 0.00 | 0.00 | 0.00 | 89 | 1014.1 |
| 20260905074441 | 24 | 360 | 0.0 | 0.0 | 0.00 | 0.00 | 0.00 | 89 | 1014.1 |
| 20260905073940 | 24 | 360 | 0.0 | 0.0 | 0.00 | 0.00 | 0.00 | 88 | 1014.1 |
| 20260905073442 | 24 | 360 | 0.0 | 0.0 | 0.00 | 0.00 | 0.00 | 88 | 1014.1 |
| 20260905072941 | 24 | 360 | 0.0 | 0.0 | 0.00 | 0.00 | 0.00 | 89 | 1014.1 |
| 20260905072441 | 24 | 360 | 0.0 | 0.0 | 0.00 | 0.00 | 0.00 | 88 | 1014.1 |
| 20260905071941 | 24 | 360 | 0.0 | 0.0 | 0.00 | 0.00 | 0.00 | 89 | 1014.1 |
| 20260905071440 | 24 | 360 | 0.0 | 0.0 | 0.00 | 0.00 | 0.00 | 89 | 1014.2 |
| 20260905070940 | 24 | 360 | 0.0 | 0.0 | 0.00 | 0.00 | 0.00 | 88 | 1014.2 |
| 20260905070441 | 24 | 360 | 0.0 | 0.0 | 0.00 | 0.00 | 0.00 | 88 | 1014.3 |
| 20260905065940 | 24 | 360 | 0.0 | 0.0 | 0.00 | 0.00 | 0.00 | 88 | 1014.3 |